カタログに戻る

KUIPER-00193

運用中通信LEO
NORAD 68576·PAYLOAD·🇺🇸 United States

打ち上げ Apr 4, 2026 から Cape Canaveral Space Force Station

Loading…

次のパス (今後24時間)

TLE

最新Source: CelesTrak SupGP

元期: Sep 14, 2026, 20:10 UTC

1 68576C 26072D   26257.84072917 -.00002669  00000+0 -34936-3 0  2578
2 68576  51.9034 146.7469 0001151 100.2223 208.8364 14.79938588    15

AllMySatでKUIPER-00193をリアルタイム追跡

Download on the App Store